Tracking 27122 objects as of 25-Mar-2023
HD Live streaming from Space Station
objects crossing your sky now

STARLINK-2555

Track STARLINK-2555 now!
10-day predictions
STARLINK-2555 is classified as:


NORAD ID: 48291
Int'l Code: 2021-036R
Perigee: 553.2 km
Apogee: 555.1 km
Inclination: 53.1 °
Period: 95.6 minutes
Semi major axis: 6925 km
RCS: Unknown
Launch date: April 29, 2021
Source: United States (US)
Launch site: AIR FORCE EASTERN TEST RANGE (AFETR)
Your satellite tracking list
Your tracking list is empty




NASA's NSSDC Master Catalog

Two Line Element Set (TLE):
1 48291U 21036R   23083.51252360  .00042187  00000-0  28296-2 0  9997
2 48291  53.0545 255.2095 0001376 106.6998 253.4142 15.06459888105351
Source of the keplerian elements: AFSPC